EW6758 Weather Reports


time (UTC)temp
C
wind
direction
speed
KPH
gust
KPH
rain 1hr
cm
rain 24hr
cm
rain mn
cm
humidity
%
barometer
mb
20260502184003 22 144 0.0 0.0 0.00 8.13 0.00 44 1021.7
20260502182003 22 217 1.6 4.8 0.00 8.13 0.00 55 1022.0
20260502164003 20 352 0.0 0.0 0.00 8.13 0.00 61 1022.7
20260502162003 20 240 0.0 0.0 0.00 8.13 0.00 61 1023.0
20260502152003 15 4 0.0 0.0 0.00 8.13 0.00 99 1022.4
20260502121333 10 317 0.0 0.0 0.00 8.13 0.00 99 1020.7
20260502115306 10 359 0.0 0.0 0.00 8.13 0.00 99 1020.3
20260502113402 10 344 0.0 0.0 0.00 8.13 0.00 99 1020.0
20260502111302 10 253 0.0 0.0 0.00 8.13 0.00 99 1019.3
20260502105305 10 244 0.0 0.0 0.00 8.13 0.00 99 1019.0
20260502103403 10 260 0.0 0.0 0.00 8.13 0.00 99 1019.0
20260502101303 10 262 0.0 0.0 0.00 8.13 0.00 99 1019.0
20260502091302 11 226 0.0 0.0 0.00 8.13 0.00 99 1018.6
20260502071303 11 289 0.0 0.0 0.00 8.13 0.00 99 1018.3
20260502065306 11 283 0.0 0.0 0.00 8.13 0.00 99 1018.6
20260502063402 10 271 0.0 0.0 0.00 8.13 0.00 99 1018.6
20260502060602 11 267 0.0 0.0 0.00 8.13 0.00 99 1019.0
20260502054703 10 284 0.0 0.0 0.00 8.13 0.00 99 1019.3
20260502052702 11 275 0.0 0.0 0.00 8.13 0.00 99 1019.3
20260502050603 10 275 0.0 0.0 0.00 8.13 0.00 99 1019.3
20260502044733 10 282 0.0 0.0 0.00 5.18 4.06 99 1019.3
20260502042703 10 254 0.0 0.0 0.00 5.13 4.01 99 1019.6
20260502040603 10 248 0.0 0.0 0.00 5.13 4.01 99 1019.3
20260502034703 10 276 0.0 0.0 0.00 5.13 4.01 99 1019.3
20260502032702 10 254 0.0 0.0 0.00 5.11 3.99 99 1019.0
20260502030603 10 275 0.0 0.0 0.18 5.05 3.96 99 1019.0
20260502024702 10 254 0.0 0.0 0.00 5.05 3.94 99 1018.6
20260502022703 10 307 0.0 0.0 0.18 5.03 3.94 99 1018.3
20260502020633 10 275 0.0 0.0 0.00 5.03 3.91 99 1018.6
20260502014733 10 269 0.0 0.0 0.00 5.03 3.91 99 1017.6
20260502012702 10 248 0.0 0.0 0.00 5.03 3.91 99 1016.3
20260502010602 10 280 0.0 0.0 0.00 4.98 3.86 99 1016.9
20260502004704 11 295 0.0 0.0 0.18 4.95 3.84 99 1016.9
20260502002702 11 351 0.0 0.0 0.18 4.88 3.78 99 1017.3
20260502000603 11 334 0.0 0.0 0.18 4.78 3.68 99 1018.3
20260501234703 11 307 0.0 0.0 0.36 4.65 3.61 99 1017.9
20260501232702 11 271 0.0 0.0 0.36 4.55 3.45 99 1017.6
20260501230603 11 23 0.0 0.0 0.36 4.42 3.33 99 1017.6
20260501224703 11 304 0.0 0.0 0.00 4.37 3.25 99 1017.3
20260501222703 11 282 0.0 0.0 0.18 4.29 3.20 99 1016.9
20260501220603 12 281 0.0 0.0 0.18 4.22 3.12 99 1016.9
20260501214003 12 8 0.0 0.0 0.00 4.22 3.10 99 1015.2
20260501212003 12 320 4.8 4.8 0.00 4.22 3.10 99 1013.9
20260501205306 12 137 1.6 20.9 0.18 4.19 3.10 99 1013.5
20260501203402 12 277 0.0 0.0 0.00 4.19 3.07 99 1013.9
20260501201303 11 269 0.0 0.0 0.00 4.14 3.02 99 1015.6
20260501195305 11 338 0.0 0.0 0.18 4.06 2.97 99 1015.9
20260501193402 11 341 0.0 0.0 0.00 4.04 2.92 99 1016.9
20260501191302 11 304 0.0 0.0 0.18 3.96 2.87 99 1017.9
20260501185305 11 116 0.0 0.0 0.18 3.94 2.84 99 1017.9